Fountain Dale, PA

3:05 AM EDT on March 23, 2017 (GMT -0400)
Fountain Dale

Weather History for KRYT - September, 2012

Change the Weather History Date:

Tuesday, September 25, 2012

  Actual Average (KHGR) Record (KHGR)
Temperature  
Mean Temperature 58 °F -  
Max Temperature 72 °F 69 °F 89 °F (2007)
Min Temperature 45 °F 51 °F 44 °F (1997)
Degree Days  
Heating Degree Days 8    
Growing Degree Days 8 (Base 50)    
Moisture  
Dew Point 46 °F    
Average Humidity 68    
Maximum Humidity 83    
Minimum Humidity 38    
Precipitation  
Precipitation 0.00 in - - ()
Sea Level Pressure  
Sea Level Pressure 30.13 in    
Wind  
Wind Speed 1 mph (SW)    
Max Wind Speed 5 mph    
Max Gust Speed -    
Visibility 10 miles    
Events      
Averages and records for this station are not official NWS values.
T = Trace of Precipitation, MM = Missing Value Source: NWS Daily Summary

Daily Weather History Graph

Daily Weather History Graph

Search for Another Location

Airport or City:

Trip Planner

Search our weather history database for the weather conditions in past years. The results will help you decide how hot, cold, wet, or windy it might be!

Date:

Astronomy

Sep. 25, 2012 Rise Set
Actual Time 7:00 AM EDT 7:01 PM EDT
Civil Twilight 6:33 AM EDT 7:27 PM EDT
Nautical Twilight 6:02 AM EDT 7:59 PM EDT
Astronomical Twilight 5:30 AM EDT 8:31 PM EDT
Moon 4:24 PM EDT (9/25) 2:20 AM EDT (9/25)
Length of Visible Light 12h 54m
Length of Day
12h 00m
Waxing Gibbous, 80% of the Moon is Illuminated
Sep 25
Waxing Gibbous
Sep 29
Full
Oct 8
Last Quarter
Oct 15
New
Oct 21
First Quarter

Hourly Weather History & Observations

Time (EDT) Temp. Windchill Dew Point Humidity Pressure Visibility Wind Dir Wind Speed Gust Speed Precip Events Conditions
12:53 AM 48.9 °F - 41.0 °F 74% 30.13 in 10.0 mi Calm Calm - N/A   Clear
1:53 AM 52.0 °F - 42.1 °F 69% 30.14 in 10.0 mi Calm Calm - N/A   Clear
2:53 AM 50.0 °F - 42.1 °F 74% 30.13 in 10.0 mi Calm Calm - N/A   Clear
3:53 AM 48.9 °F - 42.1 °F 77% 30.13 in 10.0 mi Calm Calm - N/A   Clear
4:53 AM 48.0 °F - 42.1 °F 80% 30.14 in 10.0 mi Calm Calm - N/A   Clear
5:53 AM 46.0 °F - 41.0 °F 83% 30.14 in 10.0 mi Calm Calm - N/A   Clear
6:53 AM 45.0 °F 43.5 °F 39.9 °F 82% 30.17 in 10.0 mi SW 3.5 mph - N/A   Clear
7:53 AM 46.9 °F - 42.1 °F 83% 30.19 in 10.0 mi Calm Calm - N/A   Clear
8:53 AM 54.0 °F - 45.0 °F 72% 30.19 in 10.0 mi Calm Calm - N/A   Clear
9:53 AM 60.1 °F - 48.0 °F 64% 30.17 in 10.0 mi Calm Calm - N/A   Clear
10:53 AM 66.9 °F - 46.0 °F 47% 30.16 in 10.0 mi Calm Calm - N/A   Clear
12:53 PM 70.0 °F - 45.0 °F 41% 30.15 in 10.0 mi WSW 4.6 mph - N/A   Clear
2:00 PM - - - N/A% - - North - - N/A   Unknown
4:53 PM 70.0 °F - 43.0 °F 38% 30.10 in 10.0 mi SW 3.5 mph - N/A   Partly Cloudy
5:53 PM 66.0 °F - 50.0 °F 56% 30.12 in 10.0 mi Calm Calm - N/A   Mostly Cloudy
6:53 PM 64.0 °F - 50.0 °F 60% 30.10 in 10.0 mi Calm Calm - N/A   Overcast
7:53 PM 61.0 °F - 51.1 °F 70% 30.07 in 10.0 mi Calm Calm - N/A   Clear
8:53 PM 60.1 °F - 53.1 °F 78% 30.08 in 10.0 mi Calm Calm - N/A   Mostly Cloudy
9:53 PM 61.0 °F - 54.0 °F 78% 30.09 in 10.0 mi Calm Calm - N/A   Overcast
10:53 PM 64.0 °F - 51.1 °F 63% 30.08 in 10.0 mi Variable 3.5 mph - N/A   Overcast
11:53 PM 62.1 °F - 53.1 °F 72% 30.08 in 10.0 mi Calm Calm - N/A   Overcast